| time (UTC) | temp F | wind direction | speed MPH | gust MPH | rain 1hr in | rain 24hr in | rain mn in | humidity % | barometer mb |
| 20260510014553 | 77 | 61 | 4.0 | 7.0 | 0.00 | 0.00 | 0.00 | 16 | 990.9 |
| 20260510013048 | 78 | 360 | 3.0 | 6.0 | 0.00 | 0.00 | 0.00 | 11 | 990.8 |
| 20260510011544 | 80 | 20 | 8.0 | 12.0 | 0.00 | 0.00 | 0.00 | 11 | 990.6 |
| 20260510010056 | 80 | 13 | 4.0 | 7.0 | 0.00 | 0.00 | 0.00 | 12 | 990.5 |
| 20260510004544 | 81 | 327 | 5.0 | 9.0 | 0.00 | 0.00 | 0.00 | 12 | 990.4 |
| 20260510003054 | 81 | 325 | 6.0 | 12.0 | 0.00 | 0.00 | 0.00 | 11 | 990.5 |
| 20260510001545 | 81 | 10 | 6.0 | 13.0 | 0.00 | 0.00 | 0.00 | 12 | 990.6 |
| 20260510000048 | 82 | 293 | 4.0 | 12.0 | 0.00 | 0.00 | 0.00 | 14 | 990.6 |
| 20260509234546 | 82 | 350 | 5.0 | 12.0 | 0.00 | 0.00 | 0.00 | 11 | 990.5 |
| 20260509233036 | 82 | 225 | 2.0 | 11.0 | 0.00 | 0.00 | 0.00 | 13 | 990.7 |
| 20260509231508 | 82 | 338 | 7.0 | 12.0 | 0.00 | 0.00 | 0.00 | 11 | 990.8 |
| 20260509230006 | 82 | 80 | 9.0 | 12.0 | 0.00 | 0.00 | 0.00 | 12 | 991.0 |
| 20260509224532 | 82 | 47 | 6.0 | 15.0 | 0.00 | 0.00 | 0.00 | 12 | 991.1 |
| 20260509223031 | 83 | 19 | 5.0 | 10.0 | 0.00 | 0.00 | 0.00 | 11 | 991.2 |
| 20260509221600 | 83 | 286 | 2.0 | 10.0 | 0.00 | 0.00 | 0.00 | 13 | 991.4 |
| 20260509214550 | 82 | 182 | 2.0 | 8.0 | 0.00 | 0.00 | 0.00 | 12 | 991.9 |
| 20260509213048 | 82 | 104 | 4.0 | 10.0 | 0.00 | 0.00 | 0.00 | 13 | 992.1 |
| 20260509211546 | 82 | 68 | 7.0 | 15.0 | 0.00 | 0.00 | 0.00 | 13 | 992.4 |
| 20260509210043 | 81 | 301 | 1.0 | 9.0 | 0.00 | 0.00 | 0.00 | 15 | 992.7 |
| 20260509204553 | 81 | 177 | 6.0 | 10.0 | 0.00 | 0.00 | 0.00 | 13 | 993.1 |
| 20260509203036 | 81 | 94 | 7.0 | 13.0 | 0.00 | 0.00 | 0.00 | 16 | 993.6 |
| 20260509201531 | 81 | 62 | 2.0 | 16.0 | 0.00 | 0.00 | 0.00 | 14 | 993.8 |
| 20260509200036 | 81 | 348 | 6.0 | 12.0 | 0.00 | 0.00 | 0.00 | 14 | 993.9 |
| 20260509194537 | 80 | 321 | 2.0 | 8.0 | 0.00 | 0.00 | 0.00 | 15 | 994.0 |
| 20260509193033 | 79 | 298 | 3.0 | 8.0 | 0.00 | 0.00 | 0.00 | 18 | 994.3 |
| 20260509191519 | 79 | 184 | 7.0 | 14.0 | 0.00 | 0.00 | 0.00 | 15 | 994.5 |
| 20260509190016 | 79 | 246 | 3.0 | 8.0 | 0.00 | 0.00 | 0.00 | 15 | 994.5 |
| 20260509184512 | 77 | 293 | 1.0 | 13.0 | 0.00 | 0.00 | 0.00 | 19 | 994.9 |
| 20260509183008 | 77 | 146 | 3.0 | 14.0 | 0.00 | 0.00 | 0.00 | 18 | 995.1 |
| 20260509181505 | 77 | 125 | 9.0 | 13.0 | 0.00 | 0.00 | 0.00 | 17 | 995.4 |
| 20260509180100 | 76 | 213 | 7.0 | 16.0 | 0.00 | 0.00 | 0.00 | 16 | 995.5 |
| 20260509174603 | 76 | 203 | 5.0 | 10.0 | 0.00 | 0.00 | 0.00 | 17 | 995.6 |
| 20260509173059 | 75 | 139 | 6.0 | 18.0 | 0.00 | 0.00 | 0.00 | 17 | 995.9 |
| 20260509171553 | 75 | 181 | 2.0 | 13.0 | 0.00 | 0.00 | 0.00 | 18 | 995.9 |
| 20260509170047 | 75 | 136 | 8.0 | 13.0 | 0.00 | 0.00 | 0.00 | 20 | 996.0 |
| 20260509164546 | 74 | 333 | 5.0 | 12.0 | 0.00 | 0.00 | 0.00 | 17 | 995.8 |
| 20260509163038 | 73 | 109 | 3.0 | 11.0 | 0.00 | 0.00 | 0.00 | 19 | 996.1 |
| 20260509161534 | 72 | 259 | 1.0 | 9.0 | 0.00 | 0.00 | 0.00 | 23 | 996.4 |
| 20260509160032 | 69 | 180 | 3.0 | 8.0 | 0.00 | 0.00 | 0.00 | 24 | 996.5 |
| 20260509154535 | 66 | 328 | 3.0 | 7.0 | 0.00 | 0.00 | 0.00 | 25 | 996.7 |
| 20260509153007 | 65 | 301 | 0.0 | 5.0 | 0.00 | 0.00 | 0.00 | 27 | 996.8 |
| 20260509151503 | 63 | 338 | 2.0 | 6.0 | 0.00 | 0.00 | 0.00 | 30 | 997.0 |
| 20260509150031 | 61 | 319 | 0.0 | 5.0 | 0.00 | 0.00 | 0.00 | 34 | 997.2 |
| 20260509144531 | 61 | 157 | 0.0 | 2.0 | 0.00 | 0.00 | 0.00 | 35 | 997.3 |
| 20260509143034 | 58 | 157 | 0.0 | 2.0 | 0.00 | 0.00 | 0.00 | 33 | 997.1 |
| 20260509141529 | 56 | 102 | 0.0 | 2.0 | 0.00 | 0.00 | 0.00 | 37 | 997.1 |
| 20260509140046 | 53 | 100 | 0.0 | 1.0 | 0.00 | 0.00 | 0.00 | 40 | 997.0 |
| 20260509134526 | 50 | 99 | 0.0 | 1.0 | 0.00 | 0.00 | 0.00 | 44 | 997.1 |
| 20260509133023 | 47 | 99 | 0.0 | 0.0 | 0.00 | 0.00 | 0.00 | 50 | 996.9 |
| 20260509131533 | 44 | 99 | 0.0 | 0.0 | 0.00 | 0.00 | 0.00 | 63 | 996.9 |
| 20260509130024 | 40 | 360 | 0.0 | 5.0 | 0.00 | 0.00 | 0.00 | 59 | 996.8 |
| 20260509124515 | 40 | 109 | 1.0 | 5.0 | 0.00 | 0.00 | 0.00 | 55 | 996.5 |
| 20260509123100 | 41 | 108 | 2.0 | 5.0 | 0.00 | 0.00 | 0.00 | 50 | 996.4 |
| 20260509121653 | 41 | 110 | 4.0 | 6.0 | 0.00 | 0.00 | 0.00 | 49 | 996.2 |
| 20260509120044 | 42 | 109 | 3.0 | 6.0 | 0.00 | 0.00 | 0.00 | 47 | 996.2 |
| 20260509114535 | 44 | 109 | 4.0 | 7.0 | 0.00 | 0.00 | 0.00 | 45 | 996.1 |
| 20260509113027 | 44 | 99 | 6.0 | 11.0 | 0.00 | 0.00 | 0.00 | 45 | 995.9 |
| 20260509111522 | 41 | 101 | 5.0 | 8.0 | 0.00 | 0.00 | 0.00 | 53 | 995.9 |
| 20260509110014 | 37 | 110 | 4.0 | 6.0 | 0.00 | 0.00 | 0.00 | 62 | 995.9 |
| 20260509104507 | 36 | 115 | 2.0 | 5.0 | 0.00 | 0.00 | 0.00 | 66 | 995.8 |
| 20260509103057 | 38 | 115 | 0.0 | 2.0 | 0.00 | 0.00 | 0.00 | 65 | 995.7 |
| 20260509101547 | 38 | 115 | 1.0 | 5.0 | 0.00 | 0.00 | 0.00 | 61 | 995.5 |
| 20260509100037 | 41 | 117 | 2.0 | 5.0 | 0.00 | 0.00 | 0.00 | 54 | 995.4 |
| 20260509094535 | 41 | 112 | 1.0 | 5.0 | 0.00 | 0.00 | 0.00 | 51 | 995.3 |
| 20260509093003 | 42 | 114 | 2.0 | 4.0 | 0.00 | 0.00 | 0.00 | 53 | 995.2 |
| 20260509091501 | 43 | 115 | 3.0 | 6.0 | 0.00 | 0.00 | 0.00 | 50 | 995.3 |
| 20260509090108 | 43 | 110 | 3.0 | 6.0 | 0.00 | 0.00 | 0.00 | 49 | 995.4 |
| 20260509084559 | 43 | 106 | 4.0 | 6.0 | 0.00 | 0.00 | 0.00 | 51 | 995.4 |
| 20260509083058 | 43 | 118 | 3.0 | 5.0 | 0.00 | 0.00 | 0.00 | 50 | 995.6 |
| 20260509081547 | 44 | 121 | 3.0 | 6.0 | 0.00 | 0.00 | 0.00 | 47 | 995.6 |
| 20260509080048 | 45 | 119 | 3.0 | 6.0 | 0.00 | 0.00 | 0.00 | 45 | 995.6 |
| 20260509074543 | 45 | 101 | 4.0 | 7.0 | 0.00 | 0.00 | 0.00 | 48 | 995.6 |
| 20260509073046 | 45 | 109 | 5.0 | 7.0 | 0.00 | 0.00 | 0.00 | 46 | 995.5 |
| 20260509071538 | 45 | 111 | 5.0 | 7.0 | 0.00 | 0.00 | 0.00 | 46 | 995.6 |
| 20260509070037 | 45 | 118 | 4.0 | 7.0 | 0.00 | 0.00 | 0.00 | 46 | 995.8 |
| 20260509064505 | 46 | 105 | 4.0 | 7.0 | 0.00 | 0.00 | 0.00 | 45 | 995.9 |
| 20260509063003 | 46 | 107 | 5.0 | 8.0 | 0.00 | 0.00 | 0.00 | 46 | 996.0 |
| 20260509061600 | 45 | 107 | 4.0 | 7.0 | 0.00 | 0.00 | 0.00 | 47 | 996.0 |
| 20260509054611 | 46 | 121 | 4.0 | 6.0 | 0.00 | 0.00 | 0.00 | 46 | 995.9 |
| 20260509053132 | 46 | 108 | 2.0 | 6.0 | 0.00 | 0.00 | 0.00 | 48 | 995.8 |
| 20260509051522 | 46 | 109 | 3.0 | 7.0 | 0.00 | 0.00 | 0.00 | 48 | 995.7 |
| 20260509050021 | 45 | 109 | 4.0 | 6.0 | 0.00 | 0.00 | 0.00 | 52 | 995.7 |
| 20260509044516 | 46 | 107 | 2.0 | 5.0 | 0.00 | 0.00 | 0.00 | 56 | 995.7 |
| 20260509043013 | 47 | 360 | 1.0 | 3.0 | 0.00 | 0.00 | 0.00 | 55 | 995.6 |
| 20260509041508 | 50 | 360 | 1.0 | 4.0 | 0.00 | 0.00 | 0.00 | 48 | 995.4 |
| 20260509040006 | 51 | 360 | 2.0 | 5.0 | 0.00 | 0.00 | 0.00 | 40 | 995.2 |
| 20260509034537 | 52 | 360 | 5.0 | 7.0 | 0.00 | 0.00 | 0.00 | 41 | 994.9 |
| 20260509033032 | 53 | 360 | 5.0 | 6.0 | 0.00 | 0.00 | 0.00 | 39 | 994.6 |
| 20260509031530 | 53 | 105 | 5.0 | 7.0 | 0.00 | 0.00 | 0.00 | 40 | 994.4 |
| 20260509030027 | 51 | 360 | 5.0 | 7.0 | 0.00 | 0.00 | 0.00 | 43 | 994.3 |
| 20260509024523 | 52 | 129 | 2.0 | 4.0 | 0.00 | 0.00 | 0.00 | 52 | 994.0 |
| 20260509023019 | 54 | 360 | 2.0 | 4.0 | 0.00 | 0.00 | 0.00 | 50 | 993.9 |
| 20260509021545 | 59 | 128 | 1.0 | 3.0 | 0.00 | 0.00 | 0.00 | 39 | 993.7 |
| 20260509020050 | 63 | 128 | 2.0 | 6.0 | 0.00 | 0.00 | 0.00 | 26 | 993.4 |